| time (UTC) | temp F | wind direction | speed MPH | gust MPH | rain 1hr in | rain 24hr in | rain mn in | humidity % | barometer mb |
| 20260504001355 | 37 | 283 | 1.0 | 4.0 | 0.00 | 0.00 | 0.00 | 80 | 1019.0 |
| 20260504001153 | 37 | 47 | 0.0 | 4.0 | 0.00 | 0.00 | 0.00 | 80 | 1019.1 |
| 20260504000953 | 37 | 307 | 2.0 | 4.0 | 0.00 | 0.00 | 0.00 | 80 | 1019.0 |
| 20260504000753 | 37 | 39 | 0.0 | 4.0 | 0.00 | 0.00 | 0.00 | 79 | 1018.7 |
| 20260504000553 | 37 | 81 | 1.0 | 5.0 | 0.00 | 0.00 | 0.00 | 79 | 1018.7 |
| 20260504000354 | 37 | 97 | 2.0 | 5.0 | 0.00 | 0.00 | 0.00 | 79 | 1018.9 |
| 20260504000153 | 37 | 54 | 2.0 | 5.0 | 0.00 | 0.00 | 0.00 | 79 | 1019.0 |
| 20260503235952 | 37 | 54 | 1.0 | 5.0 | 0.00 | 0.00 | 0.00 | 81 | 1018.8 |
| 20260503235752 | 37 | 38 | 4.0 | 5.0 | 0.00 | 0.00 | 0.00 | 81 | 1018.8 |
| 20260503235552 | 37 | 56 | 0.0 | 3.0 | 0.00 | 0.00 | 0.00 | 81 | 1018.9 |
| 20260503235352 | 37 | 352 | 0.0 | 3.0 | 0.00 | 0.00 | 0.00 | 81 | 1018.5 |
| 20260503235152 | 37 | 322 | 1.0 | 3.0 | 0.00 | 0.00 | 0.00 | 80 | 1018.7 |
| 20260503234952 | 37 | 68 | 0.0 | 3.0 | 0.00 | 0.00 | 0.00 | 80 | 1018.6 |
| 20260503234752 | 37 | 115 | 2.0 | 3.0 | 0.00 | 0.00 | 0.00 | 79 | 1018.7 |
| 20260503234553 | 37 | 66 | 2.0 | 3.0 | 0.00 | 0.00 | 0.00 | 79 | 1018.5 |
| 20260503234353 | 37 | 62 | 2.0 | 3.0 | 0.00 | 0.00 | 0.00 | 80 | 1018.7 |
| 20260503234153 | 38 | 169 | 1.0 | 3.0 | 0.00 | 0.00 | 0.00 | 80 | 1018.7 |
| 20260503233952 | 38 | 322 | 0.0 | 3.0 | 0.00 | 0.00 | 0.00 | 78 | 1018.9 |
| 20260503233758 | 38 | 46 | 2.0 | 3.0 | 0.00 | 0.00 | 0.00 | 77 | 1018.8 |
| 20260503233552 | 38 | 22 | 2.0 | 3.0 | 0.00 | 0.00 | 0.00 | 77 | 1018.6 |
| 20260503233353 | 38 | 63 | 2.0 | 3.0 | 0.00 | 0.00 | 0.00 | 77 | 1018.6 |
| 20260503233153 | 39 | 89 | 2.0 | 3.0 | 0.00 | 0.00 | 0.00 | 76 | 1018.4 |
| 20260503232953 | 39 | 172 | 1.0 | 4.0 | 0.00 | 0.00 | 0.00 | 75 | 1018.6 |
| 20260503232753 | 38 | 325 | 0.0 | 4.0 | 0.00 | 0.00 | 0.00 | 75 | 1018.7 |
| 20260503232552 | 39 | 28 | 0.0 | 4.0 | 0.00 | 0.00 | 0.00 | 76 | 1018.7 |
| 20260503232351 | 39 | 42 | 2.0 | 4.0 | 0.00 | 0.00 | 0.00 | 76 | 1018.7 |
| 20260503232152 | 39 | 114 | 1.0 | 4.0 | 0.00 | 0.00 | 0.00 | 75 | 1018.5 |
| 20260503231952 | 40 | 110 | 2.0 | 4.0 | 0.00 | 0.00 | 0.00 | 74 | 1018.6 |
| 20260503231752 | 40 | 120 | 2.0 | 4.0 | 0.00 | 0.00 | 0.00 | 70 | 1018.5 |
| 20260503231553 | 38 | 217 | 0.0 | 3.0 | 0.00 | 0.00 | 0.00 | 75 | 1018.8 |
| 20260503231353 | 38 | 115 | 0.0 | 3.0 | 0.00 | 0.00 | 0.00 | 79 | 1018.5 |
| 20260503231156 | 38 | 261 | 0.0 | 3.0 | 0.00 | 0.00 | 0.00 | 78 | 1018.5 |
| 20260503230952 | 38 | 65 | 2.0 | 3.0 | 0.00 | 0.00 | 0.00 | 78 | 1018.7 |
| 20260503230752 | 38 | 302 | 2.0 | 3.0 | 0.00 | 0.00 | 0.00 | 77 | 1018.8 |
| 20260503230552 | 38 | 38 | 0.0 | 3.0 | 0.00 | 0.00 | 0.00 | 77 | 1018.5 |
| 20260503230352 | 38 | 253 | 0.0 | 3.0 | 0.00 | 0.00 | 0.00 | 78 | 1018.8 |
| 20260503230152 | 38 | 353 | 2.0 | 3.0 | 0.00 | 0.00 | 0.00 | 77 | 1018.6 |
| 20260503225952 | 38 | 42 | 1.0 | 3.0 | 0.00 | 0.00 | 0.00 | 78 | 1018.5 |
| 20260503225751 | 38 | 48 | 0.0 | 3.0 | 0.00 | 0.00 | 0.00 | 78 | 1018.8 |
| 20260503225552 | 38 | 350 | 1.0 | 4.0 | 0.00 | 0.00 | 0.00 | 77 | 1018.7 |
| 20260503225352 | 38 | 41 | 2.0 | 4.0 | 0.00 | 0.00 | 0.00 | 77 | 1018.6 |
| 20260503225152 | 38 | 103 | 2.0 | 4.0 | 0.00 | 0.00 | 0.00 | 78 | 1018.5 |
| 20260503224952 | 39 | 61 | 0.0 | 4.0 | 0.00 | 0.00 | 0.00 | 77 | 1018.5 |
| 20260503224751 | 39 | 24 | 2.0 | 4.0 | 0.00 | 0.00 | 0.00 | 77 | 1018.6 |
| 20260503224551 | 39 | 26 | 2.0 | 4.0 | 0.00 | 0.00 | 0.00 | 77 | 1018.8 |
| 20260503224351 | 39 | 23 | 0.0 | 4.0 | 0.00 | 0.00 | 0.00 | 76 | 1018.4 |
| 20260503224151 | 39 | 254 | 0.0 | 4.0 | 0.00 | 0.00 | 0.00 | 76 | 1018.5 |
| 20260503223951 | 39 | 16 | 2.0 | 4.0 | 0.00 | 0.00 | 0.00 | 74 | 1018.5 |
| 20260503223751 | 40 | 11 | 1.0 | 4.0 | 0.00 | 0.00 | 0.00 | 74 | 1018.6 |
| 20260503223552 | 39 | 24 | 2.0 | 4.0 | 0.00 | 0.00 | 0.00 | 73 | 1018.5 |
| 20260503223353 | 38 | 53 | 1.0 | 4.0 | 0.00 | 0.00 | 0.00 | 77 | 1018.4 |
| 20260503223152 | 38 | 59 | 1.0 | 6.0 | 0.00 | 0.00 | 0.00 | 77 | 1018.5 |
| 20260503222951 | 38 | 56 | 2.0 | 6.0 | 0.00 | 0.00 | 0.00 | 77 | 1018.5 |
| 20260503222752 | 38 | 62 | 2.0 | 6.0 | 0.00 | 0.00 | 0.00 | 77 | 1018.3 |
| 20260503222551 | 39 | 85 | 0.0 | 6.0 | 0.00 | 0.00 | 0.00 | 77 | 1018.4 |
| 20260503222351 | 39 | 65 | 2.0 | 6.0 | 0.00 | 0.00 | 0.00 | 77 | 1018.4 |
| 20260503222152 | 39 | 80 | 1.0 | 4.0 | 0.00 | 0.00 | 0.00 | 76 | 1018.2 |
| 20260503221951 | 39 | 43 | 1.0 | 4.0 | 0.00 | 0.00 | 0.00 | 75 | 1018.4 |
| 20260503221752 | 40 | 15 | 2.0 | 4.0 | 0.00 | 0.00 | 0.00 | 76 | 1018.5 |
| 20260503221551 | 40 | 128 | 1.0 | 4.0 | 0.00 | 0.00 | 0.00 | 75 | 1018.4 |
| 20260503221351 | 40 | 63 | 4.0 | 4.0 | 0.00 | 0.00 | 0.00 | 73 | 1018.7 |
| 20260503221151 | 41 | 122 | 2.0 | 4.0 | 0.00 | 0.00 | 0.00 | 73 | 1018.5 |
| 20260503220952 | 41 | 115 | 1.0 | 4.0 | 0.00 | 0.00 | 0.00 | 70 | 1018.4 |
| 20260503220752 | 41 | 51 | 2.0 | 4.0 | 0.00 | 0.00 | 0.00 | 70 | 1018.4 |
| 20260503220552 | 41 | 78 | 2.0 | 5.0 | 0.00 | 0.00 | 0.00 | 69 | 1018.5 |
| 20260503220351 | 42 | 252 | 0.0 | 5.0 | 0.00 | 0.00 | 0.00 | 70 | 1018.6 |
| 20260503220151 | 42 | 71 | 2.0 | 5.0 | 0.00 | 0.00 | 0.00 | 69 | 1018.2 |
| 20260503215951 | 42 | 93 | 1.0 | 5.0 | 0.00 | 0.00 | 0.00 | 70 | 1018.5 |
| 20260503215751 | 42 | 41 | 3.0 | 5.0 | 0.00 | 0.00 | 0.00 | 69 | 1018.5 |
| 20260503215552 | 42 | 287 | 2.0 | 4.0 | 0.00 | 0.00 | 0.00 | 69 | 1018.4 |
| 20260503215351 | 42 | 229 | 2.0 | 8.0 | 0.00 | 0.00 | 0.00 | 68 | 1018.7 |
| 20260503215153 | 42 | 325 | 2.0 | 8.0 | 0.00 | 0.00 | 0.00 | 68 | 1018.6 |
| 20260503214952 | 42 | 87 | 0.0 | 8.0 | 0.00 | 0.00 | 0.00 | 67 | 1018.5 |
| 20260503214752 | 42 | 345 | 2.0 | 8.0 | 0.00 | 0.00 | 0.00 | 68 | 1018.7 |
| 20260503214552 | 42 | 350 | 2.0 | 8.0 | 0.00 | 0.00 | 0.00 | 68 | 1018.7 |
| 20260503214352 | 41 | 196 | 3.0 | 6.0 | 0.00 | 0.00 | 0.00 | 70 | 1018.5 |
| 20260503214152 | 40 | 268 | 2.0 | 4.0 | 0.00 | 0.00 | 0.00 | 71 | 1018.9 |
| 20260503213951 | 40 | 300 | 0.0 | 3.0 | 0.00 | 0.00 | 0.00 | 73 | 1018.9 |
| 20260503213751 | 40 | 3 | 1.0 | 4.0 | 0.00 | 0.00 | 0.00 | 73 | 1018.8 |
| 20260503213551 | 40 | 38 | 2.0 | 4.0 | 0.00 | 0.00 | 0.00 | 74 | 1018.9 |
| 20260503213351 | 40 | 66 | 0.0 | 4.0 | 0.00 | 0.00 | 0.00 | 73 | 1018.7 |
| 20260503213152 | 40 | 67 | 1.0 | 4.0 | 0.00 | 0.00 | 0.00 | 72 | 1018.6 |
| 20260503212951 | 40 | 44 | 0.0 | 4.0 | 0.00 | 0.00 | 0.00 | 72 | 1018.9 |
| 20260503212751 | 40 | 308 | 2.0 | 4.0 | 0.00 | 0.00 | 0.00 | 72 | 1018.9 |
| 20260503212552 | 40 | 311 | 0.0 | 4.0 | 0.00 | 0.00 | 0.00 | 72 | 1018.8 |
| 20260503212351 | 40 | 346 | 0.0 | 4.0 | 0.00 | 0.00 | 0.00 | 72 | 1018.4 |
| 20260503212151 | 40 | 161 | 2.0 | 4.0 | 0.00 | 0.00 | 0.00 | 72 | 1018.6 |
| 20260503211951 | 40 | 207 | 2.0 | 4.0 | 0.00 | 0.00 | 0.00 | 74 | 1018.7 |
| 20260503211751 | 39 | 1 | 0.0 | 4.0 | 0.00 | 0.00 | 0.00 | 76 | 1018.9 |
| 20260503211551 | 39 | 300 | 2.0 | 3.0 | 0.00 | 0.00 | 0.00 | 77 | 1018.9 |
| 20260503211351 | 39 | 50 | 1.0 | 4.0 | 0.00 | 0.00 | 0.00 | 76 | 1018.7 |
| 20260503211151 | 39 | 65 | 1.0 | 4.0 | 0.00 | 0.00 | 0.00 | 76 | 1018.6 |
| 20260503210953 | 40 | 83 | 0.0 | 4.0 | 0.00 | 0.00 | 0.00 | 75 | 1018.8 |
| 20260503210752 | 40 | 49 | 2.0 | 4.0 | 0.00 | 0.00 | 0.00 | 75 | 1019.1 |
| 20260503210552 | 39 | 42 | 2.0 | 4.0 | 0.00 | 0.00 | 0.00 | 76 | 1018.9 |
| 20260503210352 | 39 | 63 | 2.0 | 4.0 | 0.00 | 0.00 | 0.00 | 78 | 1019.0 |
| 20260503210152 | 39 | 149 | 2.0 | 4.0 | 0.00 | 0.00 | 0.00 | 77 | 1018.7 |
| 20260503205952 | 39 | 0 | 0.0 | 4.0 | 0.00 | 0.00 | 0.00 | 76 | 1018.6 |
| 20260503205752 | 39 | 14 | 1.0 | 4.0 | 0.00 | 0.00 | 0.00 | 75 | 1018.9 |
| 20260503205552 | 40 | 31 | 2.0 | 4.0 | 0.00 | 0.01 | 0.00 | 75 | 1018.8 |
| 20260503205352 | 40 | 45 | 2.0 | 4.0 | 0.00 | 0.01 | 0.00 | 75 | 1018.8 |
| 20260503205152 | 40 | 40 | 2.0 | 4.0 | 0.00 | 0.01 | 0.00 | 75 | 1019.0 |
| 20260503204952 | 40 | 96 | 2.0 | 4.0 | 0.00 | 0.01 | 0.00 | 76 | 1018.9 |
| 20260503204752 | 40 | 17 | 0.0 | 4.0 | 0.00 | 0.01 | 0.00 | 76 | 1018.8 |
| 20260503204551 | 40 | 71 | 2.0 | 4.0 | 0.00 | 0.01 | 0.00 | 76 | 1018.7 |
| 20260503204351 | 40 | 85 | 2.0 | 4.0 | 0.00 | 0.01 | 0.00 | 75 | 1018.8 |
| 20260503204151 | 40 | 45 | 2.0 | 4.0 | 0.00 | 0.01 | 0.00 | 73 | 1019.1 |
| 20260503203951 | 40 | 38 | 1.0 | 4.0 | 0.00 | 0.01 | 0.00 | 75 | 1019.1 |
| 20260503203751 | 40 | 15 | 2.0 | 4.0 | 0.00 | 0.01 | 0.00 | 73 | 1018.9 |
| 20260503203551 | 40 | 31 | 0.0 | 4.0 | 0.00 | 0.01 | 0.00 | 74 | 1018.8 |
| 20260503203351 | 40 | 57 | 2.0 | 4.0 | 0.00 | 0.01 | 0.00 | 74 | 1018.9 |
| 20260503203151 | 40 | 63 | 1.0 | 5.0 | 0.00 | 0.01 | 0.00 | 74 | 1018.9 |
| 20260503202951 | 41 | 347 | 0.0 | 6.0 | 0.00 | 0.01 | 0.00 | 72 | 1019.0 |
| 20260503202753 | 41 | 311 | 1.0 | 6.0 | 0.00 | 0.01 | 0.00 | 72 | 1018.9 |
| 20260503202552 | 41 | 156 | 1.0 | 6.0 | 0.00 | 0.01 | 0.00 | 72 | 1019.2 |
| 20260503202350 | 41 | 39 | 3.0 | 6.0 | 0.00 | 0.01 | 0.00 | 72 | 1019.1 |
| 20260503202150 | 41 | 47 | 4.0 | 6.0 | 0.00 | 0.01 | 0.00 | 71 | 1018.9 |
| 20260503201951 | 40 | 85 | 2.0 | 4.0 | 0.00 | 0.01 | 0.00 | 71 | 1018.7 |
| 20260503201752 | 40 | 84 | 2.0 | 4.0 | 0.00 | 0.01 | 0.00 | 74 | 1018.9 |
| 20260503201552 | 40 | 80 | 2.0 | 3.0 | 0.00 | 0.01 | 0.00 | 77 | 1018.7 |
| 20260503201352 | 40 | 67 | 1.0 | 3.0 | 0.00 | 0.01 | 0.00 | 77 | 1019.0 |
| 20260503201152 | 40 | 15 | 2.0 | 3.0 | 0.00 | 0.01 | 0.00 | 77 | 1019.0 |
| 20260503200951 | 40 | 355 | 2.0 | 3.0 | 0.00 | 0.01 | 0.00 | 78 | 1019.0 |
| 20260503200752 | 39 | 61 | 2.0 | 4.0 | 0.00 | 0.01 | 0.00 | 78 | 1018.8 |
| 20260503200551 | 40 | 51 | 0.0 | 4.0 | 0.00 | 0.01 | 0.00 | 78 | 1018.9 |
| 20260503200351 | 40 | 141 | 0.0 | 4.0 | 0.00 | 0.01 | 0.00 | 77 | 1018.9 |
| 20260503200151 | 40 | 105 | 2.0 | 4.0 | 0.00 | 0.01 | 0.00 | 76 | 1019.2 |
| 20260503195951 | 40 | 141 | 1.0 | 4.0 | 0.00 | 0.01 | 0.00 | 76 | 1019.1 |
| 20260503195752 | 41 | 308 | 2.0 | 4.0 | 0.00 | 0.01 | 0.00 | 74 | 1019.0 |
| 20260503195551 | 41 | 17 | 1.0 | 4.0 | 0.00 | 0.01 | 0.00 | 73 | 1019.2 |
| 20260503195351 | 41 | 42 | 1.0 | 4.0 | 0.00 | 0.01 | 0.00 | 74 | 1019.2 |
| 20260503195151 | 41 | 55 | 1.0 | 4.0 | 0.00 | 0.01 | 0.00 | 74 | 1019.0 |
| 20260503194951 | 41 | 26 | 1.0 | 4.0 | 0.00 | 0.01 | 0.00 | 73 | 1019.0 |
| 20260503194751 | 41 | 70 | 2.0 | 4.0 | 0.00 | 0.01 | 0.00 | 73 | 1019.2 |
| 20260503194553 | 41 | 74 | 2.0 | 3.0 | 0.00 | 0.01 | 0.00 | 71 | 1019.1 |
| 20260503194351 | 41 | 342 | 1.0 | 3.0 | 0.00 | 0.01 | 0.00 | 72 | 1018.9 |
| 20260503194151 | 41 | 344 | 1.0 | 2.0 | 0.00 | 0.01 | 0.00 | 72 | 1019.1 |
| 20260503193952 | 41 | 22 | 0.0 | 3.0 | 0.00 | 0.01 | 0.00 | 72 | 1019.0 |
| 20260503193752 | 41 | 293 | 2.0 | 4.0 | 0.00 | 0.01 | 0.00 | 72 | 1019.2 |
| 20260503193552 | 41 | 315 | 2.0 | 4.0 | 0.00 | 0.01 | 0.00 | 72 | 1019.2 |
| 20260503193352 | 41 | 18 | 0.0 | 4.0 | 0.00 | 0.01 | 0.00 | 72 | 1019.2 |
| 20260503193152 | 42 | 0 | 0.0 | 4.0 | 0.00 | 0.01 | 0.00 | 72 | 1019.3 |
| 20260503192952 | 42 | 54 | 2.0 | 4.0 | 0.00 | 0.01 | 0.00 | 72 | 1019.1 |
| 20260503192752 | 42 | 84 | 2.0 | 3.0 | 0.00 | 0.01 | 0.00 | 72 | 1019.0 |
| 20260503192551 | 43 | 113 | 2.0 | 4.0 | 0.00 | 0.01 | 0.00 | 70 | 1019.1 |
| 20260503192351 | 41 | 102 | 2.0 | 4.0 | 0.00 | 0.01 | 0.00 | 69 | 1019.3 |
| 20260503192151 | 41 | 59 | 2.0 | 4.0 | 0.00 | 0.01 | 0.00 | 75 | 1019.2 |
| 20260503191951 | 41 | 340 | 1.0 | 4.0 | 0.00 | 0.01 | 0.00 | 75 | 1019.5 |
| 20260503191751 | 40 | 15 | 2.0 | 4.0 | 0.00 | 0.01 | 0.00 | 76 | 1019.2 |
| 20260503191551 | 40 | 47 | 2.0 | 4.0 | 0.00 | 0.01 | 0.00 | 77 | 1019.0 |
| 20260503191352 | 41 | 48 | 2.0 | 2.0 | 0.00 | 0.01 | 0.00 | 76 | 1019.2 |
| 20260503191152 | 41 | 228 | 0.0 | 3.0 | 0.00 | 0.01 | 0.00 | 73 | 1019.3 |
| 20260503190952 | 41 | 315 | 0.0 | 3.0 | 0.00 | 0.01 | 0.00 | 74 | 1019.5 |
| 20260503190752 | 41 | 23 | 0.0 | 3.0 | 0.00 | 0.01 | 0.00 | 75 | 1019.5 |
| 20260503190551 | 41 | 26 | 1.0 | 3.0 | 0.00 | 0.01 | 0.00 | 75 | 1019.6 |
| 20260503190352 | 41 | 7 | 1.0 | 4.0 | 0.00 | 0.01 | 0.00 | 75 | 1019.6 |
| 20260503190151 | 41 | 7 | 0.0 | 4.0 | 0.00 | 0.01 | 0.00 | 75 | 1019.5 |
| 20260503185951 | 41 | 17 | 2.0 | 4.0 | 0.00 | 0.01 | 0.00 | 75 | 1019.5 |
| 20260503185751 | 42 | 350 | 0.0 | 4.0 | 0.00 | 0.01 | 0.00 | 74 | 1019.5 |
| 20260503185551 | 42 | 57 | 1.0 | 4.0 | 0.00 | 0.01 | 0.00 | 73 | 1019.3 |
| 20260503185351 | 42 | 28 | 2.0 | 4.0 | 0.00 | 0.01 | 0.00 | 72 | 1019.3 |
| 20260503185151 | 41 | 37 | 2.0 | 4.0 | 0.00 | 0.01 | 0.00 | 74 | 1019.6 |
| 20260503184952 | 41 | 51 | 3.0 | 4.0 | 0.00 | 0.01 | 0.00 | 76 | 1019.5 |
| 20260503184752 | 41 | 56 | 2.0 | 3.0 | 0.00 | 0.01 | 0.00 | 77 | 1019.5 |
| 20260503184551 | 41 | 329 | 0.0 | 3.0 | 0.00 | 0.01 | 0.00 | 77 | 1019.3 |
| 20260503184351 | 41 | 53 | 1.0 | 3.0 | 0.00 | 0.01 | 0.00 | 77 | 1019.3 |
| 20260503184152 | 41 | 55 | 2.0 | 2.0 | 0.00 | 0.01 | 0.00 | 77 | 1019.5 |
| 20260503183951 | 41 | 82 | 0.0 | 2.0 | 0.00 | 0.01 | 0.00 | 77 | 1019.5 |
| 20260503183751 | 41 | 77 | 1.0 | 2.0 | 0.00 | 0.01 | 0.00 | 76 | 1019.5 |
| 20260503183551 | 41 | 60 | 2.0 | 3.0 | 0.00 | 0.01 | 0.00 | 76 | 1019.6 |
| 20260503183351 | 41 | 144 | 0.0 | 3.0 | 0.00 | 0.01 | 0.00 | 75 | 1019.3 |
| 20260503183151 | 41 | 163 | 0.0 | 3.0 | 0.00 | 0.01 | 0.00 | 76 | 1019.6 |
| 20260503182951 | 42 | 34 | 0.0 | 3.0 | 0.00 | 0.01 | 0.00 | 75 | 1019.7 |
| 20260503182751 | 42 | 319 | 0.0 | 3.0 | 0.00 | 0.01 | 0.00 | 73 | 1019.5 |
| 20260503182551 | 42 | 60 | 0.0 | 3.0 | 0.00 | 0.01 | 0.00 | 71 | 1019.6 |
| 20260503182351 | 42 | 41 | 2.0 | 3.0 | 0.00 | 0.01 | 0.00 | 71 | 1019.6 |
| 20260503182153 | 42 | 55 | 2.0 | 3.0 | 0.00 | 0.01 | 0.00 | 72 | 1019.5 |
| 20260503181951 | 42 | 11 | 1.0 | 3.0 | 0.00 | 0.01 | 0.00 | 73 | 1019.6 |
| 20260503181751 | 42 | 13 | 0.0 | 2.0 | 0.00 | 0.01 | 0.00 | 72 | 1019.6 |
| 20260503181551 | 42 | 34 | 1.0 | 2.0 | 0.00 | 0.01 | 0.00 | 72 | 1019.5 |
| 20260503181351 | 43 | 4 | 0.0 | 2.0 | 0.00 | 0.01 | 0.00 | 71 | 1019.6 |
| 20260503181151 | 43 | 4 | 0.0 | 2.0 | 0.00 | 0.01 | 0.00 | 71 | 1019.6 |
| 20260503180952 | 43 | 1 | 0.0 | 2.0 | 0.00 | 0.01 | 0.00 | 71 | 1019.6 |
| 20260503180752 | 44 | 31 | 1.0 | 2.0 | 0.00 | 0.01 | 0.00 | 69 | 1019.5 |
| 20260503180552 | 44 | 115 | 2.0 | 2.0 | 0.00 | 0.01 | 0.00 | 69 | 1019.3 |
| 20260503180352 | 44 | 334 | 0.0 | 2.0 | 0.00 | 0.01 | 0.00 | 67 | 1019.3 |
| 20260503180152 | 44 | 14 | 0.0 | 2.0 | 0.00 | 0.01 | 0.00 | 66 | 1019.6 |
| 20260503175951 | 45 | 344 | 0.0 | 2.0 | 0.00 | 0.01 | 0.00 | 67 | 1019.6 |
| 20260503175751 | 45 | 0 | 0.0 | 2.0 | 0.00 | 0.01 | 0.00 | 65 | 1019.5 |
| 20260503175552 | 45 | 191 | 0.0 | 2.0 | 0.00 | 0.01 | 0.00 | 64 | 1019.6 |
| 20260503175352 | 46 | 42 | 1.0 | 3.0 | 0.00 | 0.01 | 0.00 | 62 | 1019.6 |
| 20260503175152 | 46 | 359 | 0.0 | 3.0 | 0.00 | 0.01 | 0.00 | 61 | 1019.6 |
| 20260503174952 | 46 | 192 | 0.0 | 3.0 | 0.00 | 0.01 | 0.00 | 60 | 1019.6 |
| 20260503174752 | 46 | 20 | 0.0 | 4.0 | 0.00 | 0.01 | 0.00 | 60 | 1019.2 |
| 20260503174551 | 47 | 36 | 2.0 | 4.0 | 0.00 | 0.01 | 0.00 | 60 | 1019.3 |
| 20260503174351 | 46 | 35 | 2.0 | 4.0 | 0.00 | 0.01 | 0.00 | 57 | 1019.5 |
| 20260503174151 | 47 | 51 | 1.0 | 4.0 | 0.00 | 0.01 | 0.00 | 59 | 1019.5 |
| 20260503173952 | 47 | 10 | 2.0 | 4.0 | 0.00 | 0.01 | 0.00 | 59 | 1019.3 |
| 20260503173751 | 47 | 46 | 2.0 | 4.0 | 0.00 | 0.01 | 0.00 | 59 | 1019.1 |
| 20260503173551 | 47 | 72 | 3.0 | 4.0 | 0.00 | 0.01 | 0.00 | 58 | 1019.5 |
| 20260503173351 | 47 | 45 | 2.0 | 4.0 | 0.00 | 0.01 | 0.00 | 56 | 1019.3 |
| 20260503173151 | 47 | 75 | 2.0 | 4.0 | 0.00 | 0.01 | 0.00 | 57 | 1019.5 |
| 20260503172952 | 47 | 311 | 2.0 | 4.0 | 0.00 | 0.01 | 0.00 | 56 | 1019.5 |
| 20260503172752 | 47 | 299 | 2.0 | 3.0 | 0.00 | 0.01 | 0.00 | 57 | 1019.5 |
| 20260503172552 | 47 | 37 | 2.0 | 3.0 | 0.00 | 0.01 | 0.00 | 58 | 1019.2 |
| 20260503172352 | 47 | 209 | 1.0 | 2.0 | 0.00 | 0.01 | 0.00 | 55 | 1019.3 |
| 20260503172152 | 47 | 286 | 2.0 | 2.0 | 0.00 | 0.01 | 0.00 | 56 | 1019.3 |
| 20260503171952 | 47 | 2 | 0.0 | 3.0 | 0.00 | 0.01 | 0.00 | 56 | 1019.1 |
| 20260503171752 | 47 | 289 | 1.0 | 4.0 | 0.00 | 0.01 | 0.00 | 56 | 1019.1 |
| 20260503171552 | 47 | 356 | 0.0 | 4.0 | 0.00 | 0.01 | 0.00 | 54 | 1019.2 |
| 20260503171352 | 48 | 100 | 1.0 | 5.0 | 0.00 | 0.01 | 0.00 | 57 | 1019.3 |
| 20260503171152 | 48 | 342 | 2.0 | 5.0 | 0.00 | 0.01 | 0.00 | 57 | 1019.3 |
| 20260503170952 | 48 | 66 | 2.0 | 5.0 | 0.00 | 0.01 | 0.00 | 57 | 1019.2 |
| 20260503170752 | 48 | 37 | 3.0 | 5.0 | 0.00 | 0.01 | 0.00 | 56 | 1019.2 |
| 20260503170552 | 48 | 27 | 2.0 | 5.0 | 0.00 | 0.01 | 0.00 | 54 | 1019.3 |
| 20260503170351 | 48 | 5 | 1.0 | 4.0 | 0.00 | 0.01 | 0.00 | 58 | 1019.5 |
| 20260503170151 | 48 | 74 | 2.0 | 4.0 | 0.00 | 0.01 | 0.00 | 56 | 1019.3 |
| 20260503160151 | 51 | 25 | 1.0 | 3.0 | 0.00 | 0.01 | 0.00 | 52 | 1019.5 |
| 20260503150951 | 52 | 40 | 3.0 | 6.0 | 0.00 | 0.07 | 0.00 | 49 | 1019.6 |
| 20260503150751 | 53 | 63 | 3.0 | 5.0 | 0.00 | 0.07 | 0.00 | 49 | 1019.7 |
| 20260503150551 | 53 | 28 | 4.0 | 5.0 | 0.00 | 0.07 | 0.00 | 49 | 1019.7 |
| 20260503150351 | 53 | 65 | 1.0 | 5.0 | 0.00 | 0.07 | 0.00 | 49 | 1019.8 |
| 20260503150151 | 53 | 110 | 1.0 | 5.0 | 0.00 | 0.07 | 0.00 | 49 | 1019.8 |
| 20260503140151 | 55 | 46 | 3.0 | 7.0 | 0.00 | 0.07 | 0.00 | 50 | 1020.0 |
| 20260503131351 | 55 | 271 | 4.0 | 6.0 | 0.00 | 0.07 | 0.00 | 48 | 1019.9 |
| 20260503131151 | 55 | 56 | 3.0 | 6.0 | 0.00 | 0.07 | 0.00 | 47 | 1019.8 |
| 20260503130951 | 55 | 80 | 1.0 | 6.0 | 0.00 | 0.07 | 0.00 | 50 | 1020.0 |
| 20260503130751 | 53 | 284 | 2.0 | 6.0 | 0.00 | 0.07 | 0.00 | 48 | 1019.9 |
| 20260503130552 | 52 | 88 | 2.0 | 8.0 | 0.00 | 0.07 | 0.00 | 49 | 1019.9 |
| 20260503130351 | 52 | 47 | 2.0 | 8.0 | 0.00 | 0.07 | 0.00 | 49 | 1020.1 |
| 20260503130151 | 53 | 38 | 4.0 | 8.0 | 0.00 | 0.07 | 0.00 | 50 | 1019.9 |
| 20260503120151 | 52 | 63 | 1.0 | 4.0 | 0.00 | 0.07 | 0.00 | 52 | 1020.6 |
| 20260503110751 | 53 | 291 | 3.0 | 9.0 | 0.00 | 0.07 | 0.00 | 51 | 1020.9 |
| 20260503110552 | 53 | 13 | 2.0 | 9.0 | 0.00 | 0.07 | 0.00 | 54 | 1020.8 |
| 20260503110351 | 52 | 29 | 2.0 | 9.0 | 0.00 | 0.07 | 0.00 | 54 | 1020.9 |
| 20260503110151 | 52 | 170 | 2.0 | 9.0 | 0.00 | 0.07 | 0.00 | 55 | 1020.8 |
| 20260503100151 | 51 | 58 | 2.0 | 6.0 | 0.00 | 0.07 | 0.00 | 49 | 1020.9 |
| 20260503090351 | 50 | 132 | 2.0 | 9.0 | 0.00 | 0.07 | 0.00 | 57 | 1021.3 |
| 20260503090152 | 49 | 51 | 0.0 | 9.0 | 0.00 | 0.07 | 0.00 | 57 | 1021.4 |
| 20260503081551 | 50 | 40 | 4.0 | 8.0 | 0.00 | 0.07 | 0.00 | 55 | 1021.3 |
| 20260503081351 | 49 | 65 | 2.0 | 8.0 | 0.00 | 0.07 | 0.00 | 61 | 1021.4 |
| 20260503081151 | 48 | 50 | 4.0 | 8.0 | 0.00 | 0.07 | 0.00 | 58 | 1021.3 |
| 20260503080951 | 48 | 55 | 2.0 | 8.0 | 0.00 | 0.07 | 0.00 | 58 | 1021.3 |
| 20260503080751 | 48 | 51 | 0.0 | 8.0 | 0.00 | 0.07 | 0.00 | 60 | 1021.3 |
| 20260503080551 | 48 | 62 | 3.0 | 7.0 | 0.00 | 0.07 | 0.00 | 58 | 1021.2 |
| 20260503080352 | 47 | 42 | 2.0 | 7.0 | 0.00 | 0.07 | 0.00 | 58 | 1021.5 |
| 20260503080152 | 48 | 36 | 4.0 | 7.0 | 0.00 | 0.07 | 0.00 | 58 | 1021.3 |
| 20260503072751 | 46 | 20 | 3.0 | 8.0 | 0.00 | 0.07 | 0.00 | 62 | 1021.3 |
| 20260503072551 | 46 | 43 | 2.0 | 8.0 | 0.00 | 0.07 | 0.00 | 62 | 1021.1 |
| 20260503072351 | 46 | 29 | 4.0 | 10.0 | 0.00 | 0.07 | 0.00 | 61 | 1021.1 |
| 20260503072151 | 46 | 358 | 2.0 | 10.0 | 0.00 | 0.07 | 0.00 | 63 | 1021.2 |
| 20260503071951 | 46 | 42 | 5.0 | 10.0 | 0.00 | 0.07 | 0.00 | 63 | 1021.2 |
| 20260503071752 | 45 | 22 | 1.0 | 10.0 | 0.00 | 0.07 | 0.00 | 64 | 1021.4 |
| 20260503071552 | 45 | 48 | 2.0 | 10.0 | 0.00 | 0.07 | 0.00 | 64 | 1021.3 |
| 20260503071355 | 45 | 41 | 5.0 | 14.0 | 0.00 | 0.07 | 0.00 | 64 | 1021.0 |
| 20260503071151 | 45 | 35 | 7.0 | 14.0 | 0.00 | 0.07 | 0.00 | 64 | 1021.1 |
| 20260503070952 | 45 | 53 | 4.0 | 14.0 | 0.00 | 0.07 | 0.00 | 62 | 1021.2 |
| 20260503070751 | 45 | 70 | 3.0 | 14.0 | 0.00 | 0.07 | 0.00 | 63 | 1021.3 |
| 20260503070551 | 45 | 10 | 4.0 | 14.0 | 0.00 | 0.07 | 0.00 | 62 | 1021.2 |
| 20260503070351 | 46 | 58 | 3.0 | 11.0 | 0.00 | 0.07 | 0.00 | 61 | 1021.2 |
| 20260503070151 | 46 | 60 | 3.0 | 11.0 | 0.00 | 0.07 | 0.00 | 61 | 1021.1 |
| 20260503060151 | 45 | 83 | 2.0 | 10.0 | 0.00 | 0.07 | 0.00 | 66 | 1020.6 |
| 20260503054951 | 44 | 20 | 4.0 | 8.0 | 0.00 | 0.07 | 0.00 | 67 | 1020.6 |
| 20260503054751 | 44 | 37 | 5.0 | 8.0 | 0.00 | 0.07 | 0.00 | 66 | 1020.7 |
| 20260503054552 | 43 | 27 | 4.0 | 8.0 | 0.00 | 0.07 | 0.00 | 67 | 1020.7 |
| 20260503054351 | 43 | 59 | 3.0 | 8.0 | 0.00 | 0.07 | 0.00 | 68 | 1020.7 |
| 20260503054151 | 43 | 48 | 4.0 | 8.0 | 0.00 | 0.07 | 0.00 | 68 | 1020.7 |
| 20260503053951 | 44 | 15 | 6.0 | 8.0 | 0.00 | 0.07 | 0.00 | 68 | 1020.6 |
| 20260503053551 | 43 | 28 | 3.0 | 9.0 | 0.00 | 0.07 | 0.00 | 69 | 1020.6 |
| 20260503053351 | 43 | 50 | 2.0 | 9.0 | 0.00 | 0.07 | 0.00 | 69 | 1020.6 |
| 20260503053151 | 43 | 44 | 8.0 | 9.0 | 0.00 | 0.07 | 0.00 | 67 | 1020.8 |
| 20260503052951 | 44 | 66 | 6.0 | 9.0 | 0.00 | 0.07 | 0.00 | 67 | 1020.6 |
| 20260503052751 | 44 | 11 | 3.0 | 9.0 | 0.00 | 0.07 | 0.00 | 66 | 1020.7 |
| 20260503052552 | 44 | 35 | 2.0 | 8.0 | 0.00 | 0.07 | 0.00 | 66 | 1020.7 |
| 20260503052351 | 45 | 44 | 4.0 | 8.0 | 0.00 | 0.07 | 0.00 | 65 | 1020.6 |
| 20260503052151 | 45 | 55 | 2.0 | 13.0 | 0.00 | 0.07 | 0.00 | 66 | 1020.7 |
| 20260503051952 | 45 | 40 | 5.0 | 13.0 | 0.00 | 0.07 | 0.00 | 65 | 1020.5 |
| 20260503051752 | 44 | 83 | 3.0 | 13.0 | 0.00 | 0.07 | 0.00 | 67 | 1020.4 |
| 20260503051552 | 44 | 99 | 2.0 | 13.0 | 0.00 | 0.07 | 0.00 | 68 | 1020.4 |
| 20260503051352 | 44 | 23 | 2.0 | 13.0 | 0.00 | 0.07 | 0.00 | 69 | 1020.5 |
| 20260503051152 | 44 | 41 | 2.0 | 12.0 | 0.00 | 0.07 | 0.00 | 67 | 1020.5 |
| 20260503050951 | 44 | 62 | 3.0 | 12.0 | 0.00 | 0.07 | 0.00 | 69 | 1020.5 |
| 20260503050739 | 45 | 15 | 6.0 | 12.0 | 0.00 | 0.07 | 0.00 | 68 | 1020.3 |
| 20260503050539 | 45 | 56 | 4.0 | 11.0 | 0.00 | 0.07 | 0.00 | 69 | 1020.4 |
| 20260503050340 | 44 | 32 | 10.0 | 11.0 | 0.00 | 0.07 | 0.00 | 70 | 1020.5 |
| 20260503050139 | 44 | 50 | 4.0 | 10.0 | 0.00 | 0.07 | 0.00 | 69 | 1020.3 |
| 20260503045940 | 45 | 97 | 6.0 | 7.0 | 0.00 | 0.07 | 0.00 | 71 | 1020.5 |
| 20260503045739 | 44 | 153 | 3.0 | 7.0 | 0.00 | 0.07 | 0.00 | 71 | 1020.3 |
| 20260503045539 | 44 | 11 | 6.0 | 9.0 | 0.00 | 0.07 | 0.00 | 70 | 1020.3 |
| 20260503045339 | 44 | 64 | 4.0 | 9.0 | 0.00 | 0.07 | 0.00 | 71 | 1020.4 |
| 20260503045139 | 43 | 167 | 3.0 | 9.0 | 0.00 | 0.07 | 0.00 | 71 | 1020.4 |
| 20260503044939 | 43 | 54 | 4.0 | 9.0 | 0.00 | 0.07 | 0.00 | 71 | 1020.2 |
| 20260503044739 | 43 | 34 | 5.0 | 9.0 | 0.00 | 0.07 | 0.00 | 72 | 1020.3 |
| 20260503044539 | 43 | 32 | 5.0 | 9.0 | 0.00 | 0.07 | 0.00 | 73 | 1020.2 |
| 20260503044339 | 42 | 53 | 3.0 | 9.0 | 0.00 | 0.07 | 0.00 | 74 | 1020.2 |
| 20260503044139 | 42 | 18 | 4.0 | 8.0 | 0.00 | 0.07 | 0.00 | 74 | 1020.5 |
| 20260503043939 | 42 | 42 | 4.0 | 8.0 | 0.00 | 0.07 | 0.00 | 74 | 1020.1 |
| 20260503043739 | 42 | 80 | 2.0 | 7.0 | 0.00 | 0.07 | 0.00 | 74 | 1020.3 |
| 20260503043539 | 42 | 146 | 2.0 | 7.0 | 0.00 | 0.07 | 0.00 | 73 | 1020.3 |
| 20260503043339 | 42 | 76 | 3.0 | 6.0 | 0.00 | 0.07 | 0.00 | 72 | 1020.1 |
| 20260503043139 | 42 | 40 | 2.0 | 6.0 | 0.00 | 0.07 | 0.00 | 72 | 1020.3 |
| 20260503042940 | 42 | 49 | 2.0 | 6.0 | 0.00 | 0.07 | 0.00 | 73 | 1020.2 |
| 20260503042739 | 42 | 42 | 4.0 | 9.0 | 0.00 | 0.07 | 0.00 | 73 | 1020.2 |
| 20260503042540 | 42 | 98 | 3.0 | 9.0 | 0.00 | 0.07 | 0.00 | 72 | 1020.4 |
| 20260503042340 | 42 | 28 | 5.0 | 9.0 | 0.00 | 0.07 | 0.00 | 73 | 1020.3 |
| 20260503042139 | 42 | 34 | 5.0 | 9.0 | 0.00 | 0.07 | 0.00 | 72 | 1020.1 |
| 20260503041939 | 42 | 29 | 3.0 | 9.0 | 0.00 | 0.07 | 0.00 | 73 | 1020.0 |
| 20260503041740 | 42 | 34 | 4.0 | 9.0 | 0.00 | 0.07 | 0.00 | 73 | 1020.1 |
| 20260503041539 | 42 | 62 | 3.0 | 9.0 | 0.00 | 0.07 | 0.00 | 74 | 1020.2 |
| 20260503041340 | 42 | 64 | 3.0 | 9.0 | 0.00 | 0.07 | 0.00 | 73 | 1020.2 |
| 20260503041140 | 42 | 50 | 3.0 | 9.0 | 0.00 | 0.07 | 0.00 | 72 | 1020.1 |
| 20260503040939 | 42 | 65 | 2.0 | 9.0 | 0.00 | 0.07 | 0.00 | 73 | 1020.2 |
| 20260503040739 | 42 | 26 | 6.0 | 8.0 | 0.00 | 0.07 | 0.00 | 74 | 1020.1 |
| 20260503040539 | 42 | 32 | 3.0 | 8.0 | 0.00 | 0.07 | 0.00 | 74 | 1020.2 |
| 20260503040340 | 42 | 92 | 2.0 | 8.0 | 0.00 | 0.07 | 0.00 | 73 | 1020.1 |
| 20260503040133 | 42 | 49 | 7.0 | 8.0 | 0.00 | 0.07 | 0.00 | 73 | 1020.0 |
| 20260503035928 | 42 | 51 | 3.0 | 9.0 | 0.00 | 0.07 | 0.00 | 74 | 1020.0 |
| 20260503035727 | 42 | 62 | 5.0 | 9.0 | 0.00 | 0.07 | 0.00 | 74 | 1020.0 |
| 20260503035527 | 42 | 40 | 3.0 | 9.0 | 0.00 | 0.07 | 0.00 | 75 | 1020.2 |
| 20260503035327 | 42 | 31 | 5.0 | 9.0 | 0.00 | 0.07 | 0.00 | 74 | 1020.1 |
| 20260503035127 | 42 | 24 | 3.0 | 8.0 | 0.00 | 0.07 | 0.00 | 74 | 1020.1 |
| 20260503034927 | 41 | 15 | 3.0 | 7.0 | 0.00 | 0.07 | 0.00 | 77 | 1019.9 |
| 20260503034727 | 41 | 22 | 3.0 | 7.0 | 0.00 | 0.07 | 0.00 | 77 | 1020.1 |
| 20260503034527 | 41 | 76 | 2.0 | 7.0 | 0.00 | 0.07 | 0.00 | 76 | 1020.0 |
| 20260503034327 | 41 | 126 | 3.0 | 7.0 | 0.00 | 0.07 | 0.00 | 78 | 1019.8 |
| 20260503034127 | 41 | 120 | 2.0 | 7.0 | 0.00 | 0.07 | 0.00 | 78 | 1019.9 |
| 20260503033927 | 41 | 47 | 4.0 | 7.0 | 0.00 | 0.07 | 0.00 | 77 | 1019.9 |
| 20260503033727 | 41 | 19 | 5.0 | 6.0 | 0.00 | 0.07 | 0.00 | 76 | 1019.8 |
| 20260503033527 | 41 | 48 | 4.0 | 6.0 | 0.00 | 0.07 | 0.00 | 77 | 1019.7 |
| 20260503033327 | 41 | 355 | 6.0 | 6.0 | 0.00 | 0.07 | 0.00 | 78 | 1019.7 |
| 20260503033128 | 41 | 64 | 4.0 | 6.0 | 0.00 | 0.07 | 0.00 | 80 | 1019.5 |
| 20260503032927 | 41 | 28 | 3.0 | 6.0 | 0.00 | 0.07 | 0.00 | 80 | 1019.7 |
| 20260503032728 | 41 | 43 | 4.0 | 6.0 | 0.00 | 0.07 | 0.00 | 79 | 1019.5 |
| 20260503032528 | 41 | 20 | 3.0 | 6.0 | 0.00 | 0.07 | 0.00 | 79 | 1019.5 |
| 20260503032316 | 41 | 55 | 4.0 | 5.0 | 0.00 | 0.07 | 0.00 | 79 | 1019.5 |
| 20260503032116 | 41 | 83 | 2.0 | 7.0 | 0.00 | 0.07 | 0.00 | 79 | 1019.6 |
| 20260503031916 | 40 | 83 | 2.0 | 7.0 | 0.00 | 0.07 | 0.00 | 79 | 1019.6 |
| 20260503031716 | 41 | 92 | 1.0 | 7.0 | 0.00 | 0.07 | 0.00 | 79 | 1019.2 |
| 20260503031516 | 41 | 41 | 3.0 | 7.0 | 0.00 | 0.07 | 0.00 | 79 | 1019.6 |
| 20260503031316 | 41 | 31 | 5.0 | 7.0 | 0.00 | 0.07 | 0.00 | 78 | 1019.3 |
| 20260503031116 | 41 | 31 | 5.0 | 7.0 | 0.00 | 0.07 | 0.00 | 77 | 1019.7 |
| 20260503030916 | 41 | 15 | 7.0 | 7.0 | 0.00 | 0.07 | 0.00 | 76 | 1019.5 |
| 20260503030716 | 41 | 25 | 3.0 | 6.0 | 0.00 | 0.07 | 0.00 | 76 | 1019.7 |
| 20260503030515 | 40 | 13 | 4.0 | 7.0 | 0.00 | 0.07 | 0.00 | 78 | 1019.3 |
| 20260503030315 | 41 | 43 | 2.0 | 7.0 | 0.00 | 0.07 | 0.00 | 78 | 1019.6 |
| 20260503030115 | 41 | 20 | 3.0 | 7.0 | 0.00 | 0.07 | 0.00 | 77 | 1019.3 |
| 20260503025915 | 41 | 63 | 3.0 | 8.0 | 0.00 | 0.07 | 0.00 | 76 | 1019.6 |
| 20260503025715 | 41 | 5 | 2.0 | 8.0 | 0.00 | 0.07 | 0.00 | 74 | 1019.5 |
| 20260503025515 | 41 | 34 | 7.0 | 8.0 | 0.00 | 0.07 | 0.00 | 75 | 1019.5 |
| 20260503025315 | 41 | 54 | 3.0 | 8.0 | 0.00 | 0.07 | 0.00 | 78 | 1019.6 |
| 20260503025115 | 41 | 100 | 3.0 | 8.0 | 0.00 | 0.07 | 0.00 | 77 | 1019.2 |
| 20260503024915 | 40 | 30 | 4.0 | 6.0 | 0.00 | 0.07 | 0.00 | 78 | 1019.6 |
| 20260503024715 | 40 | 46 | 2.0 | 5.0 | 0.00 | 0.07 | 0.00 | 78 | 1019.5 |
| 20260503024517 | 40 | 77 | 0.0 | 5.0 | 0.00 | 0.07 | 0.00 | 80 | 1019.2 |
| 20260503024316 | 40 | 84 | 2.0 | 7.0 | 0.00 | 0.07 | 0.00 | 80 | 1019.5 |
| 20260503024115 | 40 | 27 | 2.0 | 7.0 | 0.00 | 0.07 | 0.00 | 81 | 1019.3 |
| 20260503023916 | 40 | 76 | 2.0 | 7.0 | 0.00 | 0.07 | 0.00 | 81 | 1019.1 |
| 20260503023716 | 40 | 24 | 0.0 | 7.0 | 0.00 | 0.07 | 0.00 | 82 | 1019.5 |
| 20260503023516 | 40 | 194 | 2.0 | 7.0 | 0.00 | 0.07 | 0.00 | 81 | 1019.2 |
| 20260503023316 | 41 | 38 | 7.0 | 7.0 | 0.00 | 0.07 | 0.00 | 78 | 1019.6 |
| 20260503023116 | 41 | 50 | 3.0 | 7.0 | 0.00 | 0.07 | 0.00 | 76 | 1019.2 |
| 20260503022915 | 41 | 6 | 2.0 | 7.0 | 0.00 | 0.07 | 0.00 | 76 | 1019.3 |
| 20260503022715 | 41 | 26 | 5.0 | 6.0 | 0.00 | 0.07 | 0.00 | 74 | 1019.2 |
| 20260503022515 | 41 | 28 | 4.0 | 6.0 | 0.00 | 0.07 | 0.00 | 74 | 1019.5 |
| 20260503022315 | 41 | 25 | 3.0 | 7.0 | 0.00 | 0.07 | 0.00 | 78 | 1019.2 |
| 20260503022115 | 40 | 162 | 2.0 | 7.0 | 0.00 | 0.07 | 0.00 | 78 | 1019.2 |
| 20260503021915 | 40 | 140 | 3.0 | 7.0 | 0.00 | 0.07 | 0.00 | 78 | 1019.5 |
| 20260503021715 | 40 | 99 | 1.0 | 7.0 | 0.00 | 0.07 | 0.00 | 78 | 1019.3 |
| 20260503021515 | 40 | 53 | 3.0 | 7.0 | 0.00 | 0.07 | 0.00 | 78 | 1019.3 |
| 20260503021315 | 40 | 34 | 4.0 | 7.0 | 0.00 | 0.07 | 0.00 | 78 | 1019.1 |
| 20260503021115 | 39 | 160 | 1.0 | 5.0 | 0.00 | 0.07 | 0.00 | 80 | 1019.3 |
| 20260503020915 | 38 | 45 | 3.0 | 5.0 | 0.00 | 0.07 | 0.00 | 85 | 1019.2 |
| 20260503020715 | 38 | 3 | 3.0 | 5.0 | 0.00 | 0.07 | 0.00 | 88 | 1019.2 |
| 20260503020515 | 39 | 46 | 3.0 | 5.0 | 0.00 | 0.07 | 0.00 | 86 | 1019.5 |
| 20260503020317 | 40 | 17 | 2.0 | 4.0 | 0.00 | 0.07 | 0.00 | 85 | 1019.5 |
| 20260503020115 | 41 | 126 | 2.0 | 4.0 | 0.00 | 0.07 | 0.00 | 82 | 1019.3 |
| 20260503015915 | 41 | 229 | 2.0 | 5.0 | 0.00 | 0.07 | 0.00 | 75 | 1019.2 |
| 20260503015715 | 41 | 79 | 2.0 | 5.0 | 0.00 | 0.07 | 0.00 | 74 | 1019.2 |
| 20260503015515 | 41 | 77 | 3.0 | 6.0 | 0.00 | 0.07 | 0.00 | 73 | 1019.3 |
| 20260503015315 | 41 | 71 | 2.0 | 9.0 | 0.00 | 0.07 | 0.00 | 73 | 1019.2 |
| 20260503015116 | 41 | 131 | 1.0 | 10.0 | 0.00 | 0.07 | 0.00 | 73 | 1019.3 |
| 20260503014915 | 41 | 85 | 2.0 | 10.0 | 0.00 | 0.07 | 0.00 | 73 | 1019.3 |
| 20260503014715 | 41 | 9 | 2.0 | 10.0 | 0.00 | 0.07 | 0.00 | 73 | 1019.2 |
| 20260503014515 | 41 | 18 | 4.0 | 10.0 | 0.00 | 0.07 | 0.00 | 72 | 1019.2 |
| 20260503014315 | 41 | 35 | 8.0 | 10.0 | 0.00 | 0.07 | 0.00 | 73 | 1019.3 |
| 20260503014115 | 41 | 334 | 4.0 | 7.0 | 0.00 | 0.07 | 0.00 | 75 | 1019.2 |
| 20260503013916 | 41 | 62 | 3.0 | 7.0 | 0.00 | 0.07 | 0.00 | 76 | 1019.3 |
| 20260503013716 | 41 | 9 | 2.0 | 7.0 | 0.00 | 0.07 | 0.00 | 76 | 1019.3 |
| 20260503013515 | 41 | 25 | 2.0 | 7.0 | 0.00 | 0.07 | 0.00 | 74 | 1019.5 |
| 20260503013316 | 41 | 13 | 4.0 | 7.0 | 0.00 | 0.07 | 0.00 | 72 | 1019.6 |
| 20260503013115 | 41 | 58 | 2.0 | 5.0 | 0.00 | 0.07 | 0.00 | 76 | 1019.5 |
| 20260503012917 | 41 | 259 | 2.0 | 8.0 | 0.00 | 0.07 | 0.00 | 76 | 1019.5 |
| 20260503012715 | 41 | 47 | 4.0 | 8.0 | 0.00 | 0.07 | 0.00 | 76 | 1019.3 |
| 20260503012516 | 41 | 41 | 3.0 | 8.0 | 0.00 | 0.07 | 0.00 | 76 | 1019.2 |
| 20260503012315 | 41 | 92 | 2.0 | 8.0 | 0.00 | 0.07 | 0.00 | 76 | 1019.5 |
| 20260503012117 | 41 | 30 | 4.0 | 8.0 | 0.00 | 0.07 | 0.00 | 76 | 1019.5 |
| 20260503011915 | 40 | 60 | 5.0 | 7.0 | 0.00 | 0.07 | 0.00 | 78 | 1019.5 |
| 20260503011715 | 40 | 20 | 4.0 | 7.0 | 0.00 | 0.07 | 0.00 | 77 | 1019.5 |
| 20260503011515 | 40 | 32 | 3.0 | 7.0 | 0.00 | 0.07 | 0.00 | 77 | 1019.3 |
| 20260503011315 | 40 | 353 | 3.0 | 7.0 | 0.00 | 0.07 | 0.00 | 78 | 1019.5 |
| 20260503011115 | 40 | 1 | 3.0 | 10.0 | 0.00 | 0.07 | 0.00 | 78 | 1019.5 |
| 20260503010915 | 40 | 27 | 4.0 | 11.0 | 0.00 | 0.07 | 0.00 | 79 | 1019.2 |
| 20260503010715 | 40 | 36 | 6.0 | 11.0 | 0.00 | 0.07 | 0.00 | 81 | 1019.5 |
| 20260503010515 | 40 | 14 | 3.0 | 11.0 | 0.00 | 0.07 | 0.00 | 82 | 1019.5 |
| 20260503010315 | 39 | 33 | 5.0 | 11.0 | 0.00 | 0.07 | 0.00 | 84 | 1019.3 |
| 20260503010115 | 38 | 23 | 9.0 | 9.0 | 0.00 | 0.07 | 0.00 | 85 | 1019.3 |
| 20260503005916 | 38 | 15 | 2.0 | 6.0 | 0.00 | 0.07 | 0.00 | 88 | 1019.5 |
| 20260503005715 | 37 | 71 | 2.0 | 6.0 | 0.00 | 0.07 | 0.00 | 92 | 1019.6 |
| 20260503005515 | 37 | 52 | 4.0 | 6.0 | 0.00 | 0.07 | 0.00 | 94 | 1019.6 |
| 20260503005304 | 36 | 102 | 0.0 | 5.0 | 0.00 | 0.07 | 0.00 | 96 | 1019.5 |
| 20260503005104 | 36 | 146 | 1.0 | 5.0 | 0.00 | 0.07 | 0.00 | 96 | 1019.7 |
| 20260503004904 | 36 | 148 | 1.0 | 5.0 | 0.00 | 0.07 | 0.00 | 96 | 1019.6 |
| 20260503004704 | 36 | 131 | 2.0 | 5.0 | 0.00 | 0.07 | 0.00 | 96 | 1019.6 |
| 20260503004504 | 36 | 168 | 2.0 | 3.0 | 0.00 | 0.07 | 0.00 | 96 | 1019.7 |
| 20260503004304 | 36 | 174 | 2.0 | 3.0 | 0.00 | 0.07 | 0.00 | 96 | 1019.6 |
| 20260503004103 | 36 | 143 | 1.0 | 3.0 | 0.00 | 0.07 | 0.00 | 96 | 1019.7 |
| 20260503003904 | 36 | 157 | 3.0 | 3.0 | 0.00 | 0.07 | 0.00 | 96 | 1019.3 |
| 20260503003704 | 36 | 131 | 2.0 | 3.0 | 0.00 | 0.07 | 0.00 | 96 | 1019.6 |
| 20260503003504 | 36 | 150 | 2.0 | 3.0 | 0.00 | 0.07 | 0.00 | 96 | 1019.7 |
| 20260503003303 | 35 | 167 | 1.0 | 3.0 | 0.00 | 0.07 | 0.00 | 96 | 1019.6 |
| 20260503003103 | 35 | 162 | 0.0 | 3.0 | 0.00 | 0.07 | 0.00 | 96 | 1019.7 |
| 20260503002903 | 35 | 127 | 2.0 | 3.0 | 0.00 | 0.07 | 0.00 | 96 | 1019.7 |
| 20260503002703 | 35 | 146 | 2.0 | 3.0 | 0.00 | 0.07 | 0.00 | 96 | 1019.8 |
| 20260503002504 | 35 | 165 | 1.0 | 3.0 | 0.00 | 0.07 | 0.00 | 96 | 1019.9 |
| 20260503002305 | 35 | 150 | 1.0 | 2.0 | 0.00 | 0.07 | 0.00 | 96 | 1019.8 |
| 20260503002103 | 35 | 94 | 0.0 | 2.0 | 0.00 | 0.07 | 0.00 | 96 | 1019.9 |
| 20260503001904 | 35 | 41 | 0.0 | 2.0 | 0.00 | 0.07 | 0.00 | 96 | 1019.8 |
| 20260503001704 | 35 | 44 | 0.0 | 2.0 | 0.00 | 0.07 | 0.00 | 96 | 1019.8 |